This is the latest recevied weather packets stored in our database for station/object EA1IDU-12. If no packets are shown the sender has not sent any weather packets the latest 10 day(s).
| Time | Temp. | Humidity | Pressure | Rain* | Wind** | Luminosity | Snow |
|---|---|---|---|---|---|---|---|
| 1787999104 | 23.89° C | 51% | 1030.1 hPa | - | - | - | - |
| 1787998218 | 23.33° C | 52% | 1030.2 hPa | - | - | - | - |
| 1787997304 | 22.78° C | 54% | 1030.2 hPa | - | - | - | - |
| 1787996404 | 22.22° C | 55% | 1030.2 hPa | - | - | - | - |
| 1787995503 | 21.67° C | 56% | 1030.1 hPa | - | - | - | - |
| 1787994603 | 21.11° C | 58% | 1030.1 hPa | - | - | - | - |
| 1787993703 | 21.11° C | 61% | 1030 hPa | - | - | - | - |
| 1787992803 | 20° C | 64% | 1029.9 hPa | - | - | - | - |
| 1787991903 | 19.44° C | 66% | 1029.8 hPa | - | - | - | - |
| 1787991003 | 18.89° C | 68% | 1029.7 hPa | - | - | - | - |
| 1787990102 | 18.33° C | 70% | 1029.6 hPa | - | - | - | - |
| 1787989202 | 17.78° C | 72% | 1029.6 hPa | - | - | - | - |
| 1787988302 | 17.22° C | 74% | 1029.5 hPa | - | - | - | - |
| 1787987402 | 16.11° C | 75% | 1029.5 hPa | - | - | - | - |
| 1787986502 | 15.56° C | 76% | 1029.7 hPa | - | - | - | - |
| 1787985602 | 14.44° C | 78% | 1029.5 hPa | - | - | - | - |
| 1787984702 | 13.89° C | 79% | 1029.5 hPa | - | - | - | - |
| 1787984184 | 12.78° C | 80% | 1029.3 hPa | - | - | - | - |
| 1787982901 | 12.22° C | 81% | 1029.3 hPa | - | - | - | - |
| 1787982001 | 11.67° C | 80% | 1029.4 hPa | - | - | - | - |
| 1787981101 | 11.67° C | 80% | 1029.3 hPa | - | - | - | - |
| 1787980200 | 11.67° C | 79% | 1029.3 hPa | - | - | - | - |
| 1787979300 | 12.22° C | 79% | 1029.2 hPa | - | - | - | - |
| 1787978399 | 12.22° C | 79% | 1029.1 hPa | - | - | - | - |
| 1787977515 | 12.22° C | 78% | 1029.1 hPa | - | - | - | - |
* Rain since midnight (hover to see other rain measurements)
** Current wind speed in m/s (hover to see current wind gust speed)